Observations
| Time | Sensor | AQI | SAQ | Temp °C | Hum % | Pres Pa | CO μg/m³ | H₂S μg/m³ | NO μg/m³ | NO₂ μg/m³ | O₃ μg/m³ | SO₂ μg/m³ | CO₂e PPM | VOC PPM | PM1 μg/m³ | PM2.5 μg/m³ | PM4 μg/m³ | PM10 μg/m³ | TPS µm |
|---|---|---|---|---|---|---|---|---|---|---|---|---|---|---|---|---|---|---|---|
| Wednesday 12 August 2026 | |||||||||||||||||||
| 09:16 | Trim Market St | 2 | 21.7 | 72 | 39,783 | 0.25 | 0 | 1.32 | 16.76 | 44.36 | 0 | 5.7 | 6.83 | 9.99 | |||||
| 09:15 | Trim Patrick St | 2 | 22.1 | 70 | 38,460 | 0.11 | 0 | 1.34 | 3.39 | 44.54 | 2 | 7.14 | 11.6 | 12.76 | |||||
| 09:15 | Trim Market St | 2 | 21.7 | 72 | 38,021 | 0.27 | 0 | 1.3 | 21.09 | 41.67 | 0 | 4.28 | 6.81 | 9.99 | |||||
| 09:14 | Trim Patrick St | 2 | 22 | 71 | 38,460 | 0.09 | 0 | 1.49 | 10.65 | 41.29 | 1.49 | 8 | 11.58 | 12.74 | |||||
| 09:14 | Trim Market St | 2 | 21.7 | 72 | 36,223 | 0.25 | 0 | 1.34 | 16.44 | 44.71 | 0 | 4.28 | 5.35 | 8.14 | |||||
| 09:13 | Trim Patrick St | 2 | 22 | 71 | 38,460 | 0.1 | 0 | 1.46 | 12.86 | 38.27 | 1.57 | 8 | 12.27 | 13.5 | |||||
| 09:13 | Trim Market St | 2 | 21.6 | 72 | 34,146 | 0.3 | 0 | 1.48 | 16.29 | 50.82 | 0 | 4.28 | 6.31 | 10.59 | |||||
| 09:12 | Trim Patrick St | 2 | 21.9 | 71 | 38,460 | 0.09 | 0 | 1.5 | 10.79 | 46.9 | 1.63 | 8 | 11.53 | 12.68 | |||||
| 09:12 | Trim Market St | 2 | 21.5 | 73 | 32,407 | 0.46 | 0 | 1.51 | 21.31 | 54.09 | 0 | 4.99 | 6.3 | 10.58 | |||||
| 09:11 | Trim Patrick St | 2 | 21.9 | 72 | 38,460 | 0.12 | 0.74 | 1.52 | 13.51 | 35.26 | 1.2 | 8.86 | 12.95 | 14.24 | |||||
| 09:11 | Trim Market St | 2 | 21.5 | 73 | 31,488 | 0.82 | 0.74 | 1.43 | 34.13 | 53.96 | 0 | 6.41 | 7.27 | 10.58 | |||||
| 09:10 | Trim Patrick St | 2 | 21.8 | 72 | 38,460 | 0.11 | 4.81 | 1.48 | 33.4 | 31.28 | 1.95 | 8.86 | 12.9 | 14.19 | |||||
| 09:10 | Trim Market St | 2 | 21.5 | 73 | 31,012 | 0.26 | 0 | 1.32 | 21.05 | 50.28 | 0 | 5.7 | 7.75 | 11.81 | |||||
| 09:09 | Trim Patrick St | 2 | 21.8 | 72 | 38,460 | 0.12 | 3.68 | 1.39 | 21.89 | 40.72 | 2.09 | 8 | 12.16 | 13.38 | |||||
| 09:09 | Trim Market St | 2 | 21.4 | 73 | 30,627 | 0.3 | 0 | 1.31 | 23.79 | 53.72 | 0 | 4.99 | 5.33 | 9.36 | |||||
| 09:08 | Trim Patrick St | 2 | 21.7 | 73 | 38,460 | 0.12 | 2.94 | 1.54 | 19.88 | 42.01 | 2.86 | 8.86 | 12.14 | 13.35 | |||||
| 09:08 | Trim Market St | 2 | 21.3 | 73 | 29,997 | 0.27 | 0 | 1.23 | 36.83 | 50.04 | 0 | 6.41 | 7.26 | 10.58 | |||||
| 09:07 | Trim Patrick St | 2 | 21.7 | 73 | 38,460 | 0.11 | 4.18 | 1.51 | 13.49 | 51.68 | 3.18 | 9.71 | 12.86 | 14.15 | |||||
| 09:07 | Trim Market St | 2 | 21.3 | 73 | 29,410 | 0.29 | 0 | 1.21 | 26.7 | 49.95 | 0 | 4.99 | 5.81 | 8.75 | |||||
| 09:06 | Trim Patrick St | 2 | 21.6 | 72 | 38,460 | 0.12 | 8.75 | 1.43 | 37.16 | 36.7 | 1.6 | 8 | 13.64 | 15 | |||||